Theta_e
318 321 323 320 319 313 311 312 312 311 310 310 310 311 308 306 306 310 310 312 317 322 325 327 330 330 331 332 334 333 333 333 333 332 332 330 331 331 331 331 329 328 327 326
320 324 321 318 317 315 315 312 312 310 310 310 309 311 308 305 306 306 309 306 309 311 311 319 325 328 329 330 331 333 334 334 334 333 333 331 329 329 330 330 330 329 328 328
322 322 319 319 317 317 318 313 312 313 310 309 308 310 309 308 305 306 303 303 303 305 310 309 316 323 327 327 329 331 333 334 334 334 333 331 329 327 329 329 329 328 327 327
320 319 318 319 319 318 320 314 310 310 312 315 308 312 306 307 307 305 304 303 302 301 305 306 311 317 323 325 327 330 332 333 334 334 333 331 329 328 327 326 326 326 327 327
318 320 319 319 318 316 318 309 311 311 310 308 307 306 306 304 309 307 305 303 302 300 302 304 306 314 321 324 326 329 331 332 333 333 333 332 329 328 326 325 326 326 326 326
313 314 317 318 315 315 310 312 311 310 309 310 310 307 307 303 306 309 307 306 303 302 301 303 306 308 310 313 319 325 329 331 332 332 333 332 329 328 326 325 325 326 326 326
314 315 312 314 316 315 312 315 317 318 315 313 304 305 313 304 303 305 308 306 302 303 304 305 309 312 312 311 311 312 316 327 331 332 332 332 331 329 327 325 325 326 325 324
317 317 314 312 317 316 314 315 314 317 316 313 304 306 307 303 303 303 303 302 302 304 305 307 310 312 313 312 311 310 309 314 329 331 330 331 330 329 327 325 325 325 322 317
314 314 312 310 312 314 315 316 312 308 299 307 306 305 304 304 304 307 305 304 305 305 306 308 310 313 313 313 311 309 309 312 323 328 329 330 330 328 326 325 323 320 316 316
309 310 310 308 310 312 312 312 310 308 311 306 303 303 309 306 305 306 306 305 305 306 306 306 307 311 313 314 314 314 316 320 323 327 329 328 327 325 322 319 317 315 313 307
308 310 311 309 310 315 313 311 308 309 309 310 306 306 301 305 305 305 307 306 306 306 305 304 305 309 312 313 315 316 318 320 322 324 325 322 321 317 318 316 313 308 302 298
308 310 310 312 308 308 309 311 309 313 308 305 308 307 303 301 302 305 306 306 304 305 304 302 303 304 306 309 311 313 313 316 318 318 316 315 317 317 315 307 301 298 297 294
308 309 311 314 312 308 310 307 306 306 307 310 309 307 302 303 303 302 306 305 305 304 303 301 301 301 303 304 306 309 310 311 311 312 313 313 312 310 303 299 297 295 294 293
310 310 311 316 314 312 309 307 305 307 308 308 307 308 305 305 304 303 305 305 305 304 304 302 300 299 301 303 304 304 305 307 308 308 308 306 302 300 297 295 294 293 292 291
309 309 310 310 309 311 309 309 306 306 308 308 307 306 305 304 304 304 305 304 304 305 304 302 300 299 300 300 301 301 302 301 302 302 301 298 297 296 294 293 292 291 291 290
306 307 310 307 309 308 311 309 309 308 307 306 305 305 304 304 304 305 305 305 306 305 305 302 301 300 298 298 299 298 298 299 299 298 296 295 294 293 292 291 291 290 289 289
306 306 306 310 308 309 311 309 308 309 307 308 305 307 303 304 305 305 305 306 306 306 304 303 301 300 299 299 298 297 298 297 296 296 294 293 292 291 291 290 290 289 288 288
309 308 307 310 309 315 311 306 307 308 308 307 304 304 303 304 304 305 305 306 305 305 304 303 303 301 300 299 298 298 297 296 295 293 292 291 291 291 290 289 288 288 287 287
308 309 311 312 309 309 307 306 305 306 308 305 305 307 303 304 305 305 304 304 305 305 305 305 304 302 299 298 298 297 295 294 293 292 291 291 291 290 289 288 287 287 287 286
310 309 311 306 313 312 307 306 304 306 309 305 305 305 303 304 305 307 304 304 305 305 306 305 304 302 299 298 297 296 293 293 291 291 291 290 290 289 287 287 287 286 286 286
310 312 314 311 304 307 305 304 304 309 308 302 304 305 302 305 307 305 303 304 305 305 305 305 303 300 298 296 297 294 292 291 291 291 290 289 288 287 286 286 286 286 285 285
314 315 313 310 302 310 304 304 307 305 304 304 303 304 303 303 304 304 303 303 302 301 303 304 301 299 297 296 295 292 291 291 291 290 289 287 286 285 285 285 285 284 284 285
311 311 311 311 308 305 301 304 300 300 303 303 305 303 302 302 302 303 301 302 299 300 301 301 299 296 294 294 295 292 291 291 290 289 287 285 284 284 284 284 283 283 283 283
302 298 308 307 300 303 302 300 299 299 301 300 300 301 300 301 300 299 297 297 296 295 296 298 295 292 291 292 293 292 290 290 289 287 285 283 283 282 282 282 282 283 282 282
300 301 298 300 297 298 299 297 299 299 298 299 299 298 299 299 299 298 296 291 292 292 294 295 292 291 289 291 290 290 290 289 287 285 283 282 282 281 281 281 281 281 282 280
300 303 306 304 301 302 304 300 296 298 298 298 299 299 296 297 297 296 290 291 290 290 291 291 290 289 287 288 288 288 288 288 287 282 281 281 280 280 280 281 282 281 279 277
Wind_Speed
5 5 14 19 19 8 1 4 6 4 4 5 8 8 8 7 4 8 9 8 10 13 19 26 35 35 35 36 39 38 38 37 34 31 28 23 24 22 19 16 15 15 14 12
6 18 13 13 15 8 2 2 5 2 1 2 5 13 4 7 8 10 13 12 13 7 7 19 31 36 37 38 38 39 40 39 37 36 32 28 24 24 22 21 20 17 16 15
9 3 15 16 14 11 9 5 6 7 4 3 4 7 5 6 4 4 8 7 8 13 14 10 22 32 38 37 39 40 40 40 39 38 31 24 21 20 21 20 18 16 15 14
4 8 21 19 16 14 16 7 9 3 6 8 4 6 7 8 9 8 10 9 11 12 8 7 18 24 33 37 36 38 39 39 39 38 34 32 25 19 20 19 17 16 15 15
3 15 21 22 24 19 6 3 1 3 4 4 4 1 6 2 15 9 11 12 12 10 10 11 17 27 27 31 32 34 35 36 38 39 37 34 28 23 18 18 15 13 11 9
3 1 9 12 16 21 5 9 5 3 4 6 10 8 6 7 8 13 12 13 11 10 9 8 14 17 17 20 22 27 32 34 36 37 37 34 31 27 18 17 13 13 11 10
2 3 3 10 12 13 6 8 2 1 3 12 2 5 14 5 8 9 16 17 11 9 8 9 10 16 16 18 20 22 24 31 35 36 37 34 29 25 22 22 19 16 14 12
8 5 12 12 13 12 18 12 5 8 9 13 1 8 7 7 5 6 6 8 8 8 8 8 12 18 18 18 19 22 26 26 30 31 32 33 28 25 23 22 21 19 16 11
6 4 13 14 8 16 15 13 8 3 3 2 4 7 10 4 6 5 7 7 14 13 11 10 11 15 15 15 17 21 25 27 28 27 29 30 26 26 24 22 20 18 14 12
7 5 3 4 12 12 6 10 8 2 4 4 4 5 7 6 10 7 8 12 10 8 8 7 10 15 15 14 15 17 21 25 28 30 31 32 29 26 23 20 19 18 16 16
2 4 3 7 10 19 9 11 8 4 4 5 2 6 9 12 13 13 16 12 11 11 9 7 10 15 16 15 15 18 21 26 30 33 34 33 31 26 20 20 22 22 21 19
7 2 4 5 2 5 9 16 12 11 9 1 3 6 2 7 5 4 5 6 6 7 8 6 12 16 16 18 19 22 23 27 31 33 33 33 32 26 26 26 25 23 22 18
8 3 4 2 1 4 5 6 6 3 3 11 6 6 1 4 5 6 8 9 8 7 8 7 8 13 18 20 22 24 25 27 29 32 33 32 32 32 32 29 26 23 21 17
7 4 7 12 10 7 6 6 6 9 8 5 7 4 8 6 8 6 6 8 10 10 11 10 7 11 18 22 25 25 25 28 30 32 33 34 34 34 32 29 26 22 19 16
12 7 4 6 6 13 8 7 7 8 14 8 7 7 8 9 8 6 6 7 9 11 11 10 9 11 21 25 26 27 29 31 33 35 36 36 34 32 30 27 24 21 18 15
2 1 6 4 2 9 15 15 11 16 15 12 5 9 7 2 4 5 9 11 13 15 14 11 11 16 19 23 28 30 33 34 36 37 37 36 34 32 29 26 23 19 17 15
5 6 4 8 3 6 2 17 16 15 13 17 11 18 4 6 8 9 10 14 17 14 12 14 16 22 24 26 29 31 36 35 36 37 36 34 32 30 26 24 21 19 16 13
6 5 3 4 3 2 9 7 17 21 19 20 4 6 9 9 10 5 8 15 15 14 15 16 21 25 29 30 33 34 36 37 37 36 36 34 31 29 25 22 21 18 15 12
3 6 3 4 3 7 10 5 7 8 16 16 16 21 10 1 3 5 10 9 13 15 16 26 29 27 28 33 36 39 38 38 37 38 36 33 31 28 26 24 21 18 14 10
5 4 5 3 6 12 3 9 6 5 13 8 15 15 9 7 4 14 8 10 15 20 20 21 28 29 30 33 39 40 38 39 38 40 37 33 29 27 25 22 20 16 13 8
4 3 5 4 5 7 8 5 3 9 7 3 11 13 9 9 16 3 7 8 11 15 18 24 30 31 33 36 43 35 35 37 41 39 35 30 26 24 22 21 18 14 10 6
13 8 4 3 3 11 5 4 8 2 1 2 2 3 9 9 2 1 3 1 5 8 19 30 29 29 35 41 42 35 38 40 40 38 33 29 26 24 22 19 16 12 9 6
4 8 8 10 6 5 3 2 3 2 2 1 3 3 3 4 3 1 2 3 4 8 14 25 25 25 31 39 42 34 35 43 42 39 34 29 26 23 20 17 13 10 8 6
2 2 4 4 3 3 1 2 2 3 1 1 1 2 3 3 5 5 2 3 2 7 15 23 24 21 23 34 36 34 42 45 44 40 33 29 26 22 17 14 12 10 8 6
2 6 5 3 3 1 2 3 3 2 3 3 2 2 2 3 4 4 4 1 2 6 10 20 19 19 22 31 34 36 44 47 44 38 33 29 25 21 18 14 11 8 8 9
3 4 4 3 3 3 1 1 3 4 2 1 1 1 1 1 3 2 3 2 5 7 11 15 16 19 23 30 34 36 43 46 44 38 33 30 25 20 16 12 9 10 10 10
Wind_Direction
158 153 193 185 189 103 50 234 196 222 211 145 210 228 226 200 197 202 209 211 216 208 215 214 215 215 214 215 215 214 212 211 210 210 209 216 218 221 222 218 215 230 235 238
146 216 187 164 182 183 188 329 217 302 111 152 211 237 247 180 218 212 203 212 216 215 217 220 220 219 219 219 218 217 217 215 211 209 210 214 220 231 232 235 236 239 244 249
181 185 173 169 180 176 214 223 229 234 155 94 119 279 229 234 232 216 229 226 222 208 218 215 215 220 221 218 219 218 217 217 215 213 214 209 216 230 228 232 236 239 243 248
207 158 163 183 186 183 201 219 257 181 170 216 176 256 238 217 230 216 233 213 225 210 210 213 203 215 215 218 217 216 216 216 215 215 211 208 210 209 227 233 235 238 240 250
121 168 174 178 187 178 211 35 233 247 233 161 224 207 261 139 228 235 234 229 226 215 198 200 206 212 209 213 211 213 213 213 213 214 213 212 213 216 223 225 229 228 226 228
37 52 196 189 183 185 96 70 34 41 348 235 213 183 238 199 199 228 230 227 220 210 198 187 192 198 193 191 198 206 210 213 216 213 214 215 210 212 209 206 209 201 200 201
109 178 318 151 167 209 87 120 133 201 218 239 278 195 233 202 220 210 220 219 201 184 183 169 165 182 192 195 198 200 204 210 215 215 214 214 212 214 205 197 191 188 182 163
165 202 189 190 200 173 189 174 183 176 197 215 54 234 238 222 217 242 251 243 167 177 187 185 182 188 195 203 212 214 212 210 207 207 209 212 211 203 199 189 184 181 174 168
149 242 163 192 167 163 186 208 222 75 41 96 211 278 300 236 252 237 232 187 196 188 183 182 180 195 197 207 215 218 215 211 202 195 192 200 194 187 178 172 174 175 172 176
207 117 183 142 150 222 183 181 202 215 164 218 256 266 228 227 249 236 226 214 199 171 169 177 176 188 195 199 203 202 203 199 190 193 195 183 177 172 168 168 170 168 169 164
279 116 256 166 199 176 185 209 213 213 165 185 184 256 207 209 209 202 223 214 187 175 169 172 180 186 188 186 182 181 181 180 180 183 177 170 164 161 168 173 170 166 160 157
218 104 148 181 24 114 199 224 213 216 212 244 168 269 219 256 279 226 194 169 161 164 163 169 173 175 175 179 175 175 170 170 171 171 167 161 158 167 168 163 158 156 154 151
186 211 104 96 38 118 182 219 214 157 94 213 195 251 305 273 261 243 180 176 176 163 155 158 169 174 177 178 177 175 175 172 168 165 164 160 158 159 159 157 156 156 153 151
133 142 163 200 214 125 184 203 199 206 211 206 234 198 284 259 240 231 209 186 170 170 178 180 173 173 178 177 178 177 175 175 170 168 165 160 158 158 157 156 156 157 155 153
188 179 139 215 209 180 202 200 197 204 230 207 213 210 248 260 230 208 173 150 167 187 191 184 166 174 182 184 180 176 175 174 171 166 163 159 158 158 157 158 160 158 158 158
295 189 173 295 323 193 208 228 231 220 230 243 202 240 227 5 91 164 187 180 194 201 197 179 174 182 189 183 181 178 175 173 171 167 164 161 160 161 162 161 161 160 160 156
122 124 123 227 8 108 312 215 216 226 220 228 209 231 177 214 211 214 192 197 205 201 185 182 190 192 190 186 182 180 179 176 176 171 166 164 165 164 164 164 165 166 164 161
131 100 99 157 71 193 243 206 223 219 229 225 245 225 194 209 221 209 193 196 204 192 189 194 193 194 190 186 185 185 184 182 179 174 172 171 169 168 168 169 170 170 169 168
66 151 230 135 194 288 269 215 162 170 250 220 212 235 219 131 64 275 200 202 206 200 203 202 198 191 182 183 185 188 185 184 183 180 179 177 176 174 173 175 174 174 173 172
78 68 162 139 194 230 115 211 170 114 263 201 203 227 196 134 211 249 191 194 211 207 202 189 187 183 181 182 186 184 182 184 185 187 183 182 182 181 177 176 176 175 177 182
155 76 180 175 232 285 244 232 187 170 254 270 185 209 160 186 213 260 192 210 208 203 193 185 178 184 185 181 186 180 180 187 190 187 184 184 182 181 179 177 177 177 180 184
178 169 177 154 201 252 193 65 175 241 113 338 61 198 195 221 104 59 21 26 178 169 172 181 177 183 183 186 182 179 186 188 189 185 182 180 180 180 179 181 179 180 183 185
152 189 194 191 193 222 217 122 32 349 133 79 97 21 331 272 273 269 281 270 218 200 183 182 178 171 180 188 187 181 183 187 183 180 178 177 177 178 179 180 180 181 184 186
271 165 190 109 266 212 137 2 89 342 293 209 99 72 11 329 342 318 336 313 258 190 184 182 171 169 175 186 187 187 185 185 180 177 175 175 175 173 176 178 181 188 191 193
189 132 155 303 291 335 210 227 186 189 328 333 37 51 13 337 327 320 310 271 230 185 182 183 174 173 175 182 184 186 185 181 177 175 173 172 174 175 175 180 187 197 212 215
186 169 173 221 189 131 194 77 131 158 197 209 114 68 29 84 272 285 279 205 170 168 179 177 175 173 176 180 180 182 184 182 177 173 173 175 174 175 180 183 195 214 208 208